When you browse on this site, cookies collect data to enhance your experience and personalize the content and advertising you see.
Visit our Privacy Policy to learn more. By continuing to use the site, you agree to this use of cookies and data.
  • In Österreich
  • Länderverzeichnis
  • Für 7 Tage
  • Wassertemperatur
  • Satellitenkarten
  • Wetterkarte
  • News
  • Widgets
  • user-avatar
    Anmelden

    Stündliche Wetter Nagoya

    Heute, 17 Februar, Sonntag

    Zeit Temperatur Niederschläge Wind Luftdruck Luftfeuchtigkeit
    00:00 +1°C° 0 mm 4 m/S 751 mmHg 59%
    01:00 +2°C° 0 mm 3 m/S 751 mmHg 61%
    02:00 +2°C° 0 mm 3 m/S 751 mmHg 62%
    03:00 +2°C° 0 mm 3 m/S 751 mmHg 65%
    04:00 +2°C° 0 mm 3 m/S 751 mmHg 66%
    05:00 +2°C° 0 mm 3 m/S 752 mmHg 66%
    06:00 +2°C° 0 mm 3 m/S 752 mmHg 67%
    07:00 +2°C° 0 mm 3 m/S 752 mmHg 62%
    08:00 +3°C° 0 mm 4 m/S 753 mmHg 57%
    09:00 +4°C° 0 mm 4 m/S 753 mmHg 53%
    10:00 +3°C° 0 mm 5 m/S 753 mmHg 49%
    11:00 +5°C° 0 mm 5 m/S 753 mmHg 46%
    12:00 +5°C° 0 mm 6 m/S 753 mmHg 42%
    13:00 +5°C° 0 mm 6 m/S 753 mmHg 42%
    14:00 +5°C° 0 mm 6 m/S 752 mmHg 42%
    15:00 +5°C° 0 mm 6 m/S 752 mmHg 42%
    16:00 +4°C° 0 mm 6 m/S 753 mmHg 44%
    17:00 +3°C° 0 mm 5 m/S 753 mmHg 47%
    18:00 +2°C° 0 mm 5 m/S 754 mmHg 50%
    19:00 +3°C° 0 mm 4 m/S 754 mmHg 51%
    20:00 +3°C° 0 mm 4 m/S 755 mmHg 53%
    21:00 +2°C° 0 mm 3 m/S 755 mmHg 55%
    22:00 +2°C° 0 mm 3 m/S 755 mmHg 56%
    23:00 +2°C° 0 mm 3 m/S 756 mmHg 58%

    Morgen, 18 Februar, Montag

    Zeit Temperatur Niederschläge Wind Luftdruck Luftfeuchtigkeit
    00:00 +3°C° 0 mm 2 m/S 756 mmHg 59%
    01:00 +3°C° 0 mm 2 m/S 756 mmHg 60%
    02:00 +2°C° 0 mm 2 m/S 756 mmHg 61%
    03:00 +2°C° 0 mm 2 m/S 757 mmHg 61%
    04:00 +2°C° 0 mm 2 m/S 757 mmHg 62%
    05:00 +2°C° 0 mm 2 m/S 757 mmHg 63%
    06:00 +2°C° 0 mm 2 m/S 757 mmHg 64%
    07:00 +3°C° 0 mm 2 m/S 757 mmHg 60%
    08:00 +4°C° 0 mm 2 m/S 758 mmHg 57%
    09:00 +5°C° 0 mm 2 m/S 758 mmHg 53%
    10:00 +7°C° 0 mm 2 m/S 758 mmHg 47%
    11:00 +8°C° 0 mm 2 m/S 758 mmHg 41%
    12:00 +10°C° 0 mm 2 m/S 758 mmHg 36%
    13:00 +11°C° 0 mm 1 m/S 757 mmHg 34%
    14:00 +12°C° 0 mm 1 m/S 757 mmHg 33%
    15:00 +12°C° 0 mm 1 m/S 757 mmHg 32%
    16:00 +11°C° 0 mm 1 m/S 757 mmHg 35%
    17:00 +11°C° 0 mm 1 m/S 758 mmHg 38%
    18:00 +10°C° 0 mm 1 m/S 758 mmHg 41%
    19:00 +9°C° 0 mm 1 m/S 759 mmHg 45%
    20:00 +8°C° 0 mm 1 m/S 759 mmHg 48%
    21:00 +8°C° 0 mm 1 m/S 759 mmHg 52%
    22:00 +7°C° 0 mm 1 m/S 759 mmHg 52%
    23:00 +7°C° 0 mm 1 m/S 759 mmHg 53%

    übermorgen, 19 Februar, Dienstag

    Zeit Temperatur Niederschläge Wind Luftdruck Luftfeuchtigkeit
    00:00 +7°C° 0 mm 1 m/S 760 mmHg 53%
    01:00 +6°C° 0 mm 1 m/S 759 mmHg 53%
    02:00 +6°C° 0 mm 1 m/S 759 mmHg 53%
    03:00 +6°C° 0 mm 1 m/S 759 mmHg 53%
    04:00 +6°C° 0 mm 1 m/S 759 mmHg 53%
    05:00 +6°C° 0 mm 1 m/S 759 mmHg 53%
    06:00 +5°C° 0 mm 1 m/S 758 mmHg 53%
    07:00 +6°C° 0 mm 1 m/S 758 mmHg 50%
    08:00 +7°C° 0 mm 1 m/S 758 mmHg 48%
    09:00 +7°C° 0 mm 0 m/S 759 mmHg 45%
    10:00 +8°C° 0 mm 1 m/S 758 mmHg 47%
    11:00 +9°C° 0 mm 1 m/S 758 mmHg 48%
    12:00 +10°C° 0 mm 1 m/S 758 mmHg 49%
    13:00 +10°C° 0.3 mm 1 m/S 757 mmHg 54%
    14:00 +10°C° 0.3 mm 1 m/S 757 mmHg 59%
    15:00 +10°C° 0.3 mm 1 m/S 756 mmHg 65%
    16:00 +9°C° 0.9 mm 1 m/S 756 mmHg 71%
    17:00 +9°C° 0.9 mm 1 m/S 756 mmHg 76%
    18:00 +9°C° 0.9 mm 1 m/S 757 mmHg 82%
    19:00 +9°C° 1 mm 1 m/S 757 mmHg 84%
    20:00 +8°C° 1 mm 1 m/S 756 mmHg 85%
    21:00 +8°C° 1 mm 1 m/S 756 mmHg 87%
    22:00 +8°C° 0.3 mm 1 m/S 756 mmHg 86%
    23:00 +8°C° 0.3 mm 1 m/S 756 mmHg 86%

    20 Februar, Mittwoch

    Zeit Temperatur Niederschläge Wind Luftdruck Luftfeuchtigkeit
    00:00 +8°C° 0.3 mm 1 m/S 755 mmHg 86%
    01:00 +8°C° 0.1 mm 1 m/S 755 mmHg 85%
    02:00 +8°C° 0.1 mm 1 m/S 754 mmHg 85%
    03:00 +8°C° 0.1 mm 1 m/S 754 mmHg 84%
    04:00 +8°C° 0 mm 1 m/S 753 mmHg 85%
    05:00 +8°C° 0 mm 1 m/S 753 mmHg 85%
    06:00 +8°C° 0 mm 1 m/S 752 mmHg 85%
    07:00 +8°C° 0.5 mm 1 m/S 752 mmHg 86%
    08:00 +9°C° 0.5 mm 1 m/S 752 mmHg 86%
    09:00 +9°C° 0.5 mm 1 m/S 752 mmHg 86%
    10:00 +10°C° 0.4 mm 1 m/S 752 mmHg 83%
    11:00 +11°C° 0.4 mm 1 m/S 751 mmHg 80%
    12:00 +12°C° 0.4 mm 1 m/S 750 mmHg 77%
    13:00 +12°C° 0.3 mm 1 m/S 750 mmHg 78%
    14:00 +12°C° 0.3 mm 1 m/S 749 mmHg 80%
    15:00 +12°C° 0.3 mm 1 m/S 749 mmHg 81%
    16:00 +12°C° 0.7 mm 1 m/S 749 mmHg 84%
    17:00 +12°C° 0.7 mm 1 m/S 749 mmHg 86%
    18:00 +12°C° 0.7 mm 2 m/S 750 mmHg 89%
    19:00 +10°C° 0.1 mm 2 m/S 750 mmHg 88%
    20:00 +10°C° 0.1 mm 3 m/S 751 mmHg 87%
    21:00 +10°C° 0.1 mm 3 m/S 751 mmHg 86%
    22:00 +8°C° 0 mm 4 m/S 751 mmHg 82%
    23:00 +8°C° 0 mm 5 m/S 752 mmHg 77%

    21 Februar, Donnerstag

    Zeit Temperatur Niederschläge Wind Luftdruck Luftfeuchtigkeit
    00:00 +7°C° 0 mm 6 m/S 752 mmHg 73%
    01:00 +6°C° 0 mm 5 m/S 752 mmHg 71%
    02:00 +5°C° 0 mm 5 m/S 752 mmHg 70%
    03:00 +5°C° 0 mm 4 m/S 752 mmHg 69%
    04:00 +5°C° 0 mm 4 m/S 753 mmHg 69%
    05:00 +4°C° 0 mm 4 m/S 753 mmHg 69%
    06:00 +4°C° 0 mm 4 m/S 753 mmHg 70%
    07:00 +5°C° 0 mm 4 m/S 753 mmHg 66%
    08:00 +5°C° 0 mm 5 m/S 754 mmHg 62%
    09:00 +6°C° 0 mm 5 m/S 754 mmHg 58%
    10:00 +7°C° 0 mm 5 m/S 754 mmHg 55%
    11:00 +8°C° 0 mm 5 m/S 754 mmHg 52%
    12:00 +8°C° 0 mm 5 m/S 753 mmHg 49%
    13:00 +8°C° 0 mm 5 m/S 753 mmHg 48%
    14:00 +9°C° 0 mm 5 m/S 753 mmHg 48%
    15:00 +9°C° 0 mm 5 m/S 753 mmHg 47%
    16:00 +8°C° 0 mm 5 m/S 754 mmHg 51%
    17:00 +7°C° 0 mm 5 m/S 754 mmHg 54%
    18:00 +6°C° 0 mm 5 m/S 755 mmHg 58%
    19:00 +5°C° 0 mm 4 m/S 755 mmHg 60%
    20:00 +5°C° 0 mm 4 m/S 755 mmHg 62%
    21:00 +4°C° 0 mm 4 m/S 756 mmHg 65%
    22:00 +4°C° 0 mm 3 m/S 756 mmHg 66%
    23:00 +4°C° 0 mm 3 m/S 756 mmHg 67%

    22 Februar, Freitag

    Zeit Temperatur Niederschläge Wind Luftdruck Luftfeuchtigkeit
    00:00 +3°C° 0 mm 3 m/S 756 mmHg 69%
    01:00 +3°C° 0 mm 3 m/S 756 mmHg 70%
    02:00 +3°C° 0 mm 3 m/S 755 mmHg 70%
    03:00 +4°C° 0 mm 2 m/S 755 mmHg 71%
    04:00 +4°C° 0 mm 2 m/S 756 mmHg 71%
    05:00 +4°C° 0 mm 2 m/S 756 mmHg 72%
    06:00 +3°C° 0 mm 2 m/S 756 mmHg 72%
    07:00 +5°C° 0 mm 2 m/S 756 mmHg 66%
    08:00 +6°C° 0 mm 2 m/S 756 mmHg 61%
    09:00 +7°C° 0 mm 2 m/S 756 mmHg 55%
    10:00 +8°C° 0 mm 2 m/S 756 mmHg 47%
    11:00 +10°C° 0 mm 2 m/S 755 mmHg 40%
    12:00 +13°C° 0 mm 2 m/S 755 mmHg 32%
    13:00 +13°C° 0 mm 2 m/S 754 mmHg 31%
    14:00 +14°C° 0 mm 1 m/S 754 mmHg 30%
    15:00 +14°C° 0 mm 1 m/S 753 mmHg 29%
    16:00 +13°C° 0 mm 1 m/S 753 mmHg 32%
    17:00 +12°C° 0 mm 1 m/S 753 mmHg 35%
    18:00 +11°C° 0 mm 0 m/S 754 mmHg 38%
    19:00 +11°C° 0 mm 1 m/S 753 mmHg 41%
    20:00 +11°C° 0 mm 1 m/S 753 mmHg 43%
    21:00 +11°C° 0 mm 1 m/S 753 mmHg 46%
    22:00 +10°C° 0.1 mm 2 m/S 753 mmHg 55%
    23:00 +10°C° 0.1 mm 3 m/S 752 mmHg 64%
    Mehr zeigen